{"data":{"norad_id":67653,"epoch":"2026-09-19T20:22:09.866784Z","epoch_age_seconds":125103,"freshness":"FRESH","line1":"1 67653U 26022F   26262.84872531  .00007022  00000+0  21967-3 0  9993","line2":"2 67653  97.2824 294.3641 0002370  99.7792 260.3719 15.33436408 35323","mean_motion":15.33436408,"eccentricity":0.000237,"inclination_deg":97.2824,"raan_deg":294.3641,"arg_perigee_deg":99.7792,"mean_anomaly_deg":260.3719,"bstar":0.00021967,"rev_number":3532,"period_min":93.906730822841,"perigee_km":463.94678008452,"apogee_km":467.1906966045,"semimajor_km":6843.7057383445,"source":"CELESTRAK","updated_at":"2026-09-20T09:00:43.619083Z"}}